Regional Weather Roundup
Issued by NWS Memphis, TN

Home | Current Version | Previous Version | Text Only | Print | Product List | Glossary On
Versions: 1 2 3 4 5 6 7 8 9 10 11 12 13 14 15 16 17 18 19 20 21 22 23 24 25 26 27 28 29 30 31 32 33 34 35 36 37 38 39 40 41 42 43 44 45 46 47 48 49 50
000
ASUS44 KMEG 241110
RWRMEG
MEMPHIS CWA HOURLY WEATHER ROUNDUP
NATIONAL WEATHER SERVICE MEMPHIS TN
600 AM CDT THU JUL 24 2014

...WEST TENNESSEE...

CITY           SKY/WX    TMP DP  RH WIND       PRES   REMARKS
MEMPHIS INTL   PTCLDY    72  68  87 NE6       30.02R
NWS MEMPHIS      N/A     70 N/A N/A MISG        N/A
JACKSON        CLEAR     69  66  90 N8        30.01R
LEXINGTON      PTCLDY    68  66  94 CALM      29.99R
DYERSBURG      CLEAR     66  55  68 N6        30.04R
UNION CITY     CLEAR     61  57  88 N6        30.03R
PARIS          CLEAR     61  58  90 N5        30.02R


...EASTERN ARKANSAS...

CITY           SKY/WX    TMP DP  RH WIND       PRES   REMARKS
JONESBORO      PTCLDY    67  60  78 NE6       30.04R
WEST MEMPHIS   CLEAR     69  69 100 CALM      30.00R
BATESVILLE     CLOUDY    68  68 100 CALM      30.06R
NEWPORT        MOCLDY    69  64  84 N9G18     30.06R
WALNUT RIDGE   PTCLDY    66  59  77 NE9       30.05R
BLYTHEVILLE    CLEAR     65  63  93 N9        30.04R
SEARCY         CLEAR     69  68  97 N6        30.05R
STUTTGART      CLEAR     70  66  88 N6        30.03R
PINE BLUFF     CLEAR     68  67  96 N3        30.03R FOG
MONTICELLO     CLEAR     71  69  93 CALM      30.01R


...NORTH MISSISSIPPI...

CITY           SKY/WX    TMP DP  RH WIND       PRES   REMARKS
TUPELO         CLEAR     70  67  90 N5        29.99R
OLIVE BRANCH   CLEAR     66 N/A N/A N6        30.02R
CLARKSDALE     CLEAR     68  68 100 CALM      30.02R
CORINTH        PTCLDY    66  66 100 CALM      29.99S FOG
GRENADA        MOCLDY    68  68 100 CALM      30.00R
GREENWOOD      CLEAR     69  68  96 CALM      29.99R
COLUMBUS       FOG       72  72 100 W2        29.99R VSB 1/2
STARKVILLE     FOG       68  68 100 CALM      29.99R VSB 1/2
GOLDEN TRIANGL FOG       72  68  88 S5        29.99R VSB 1/4


...SOUTHEAST MISSOURI...

CITY           SKY/WX    TMP DP  RH WIND       PRES   REMARKS
WEST PLAINS    PTCLDY    63  58  83 NE7       30.12R
POPLAR BLUFF   PTCLDY    63  51  65 N7        30.06R
CAPE GIRARDEAU CLEAR     59  53  80 N6        30.07R


...NORTHWEST ALABAMA...

CITY           SKY/WX    TMP DP  RH WIND       PRES   REMARKS
MUSCLE SHOALS  CLOUDY    73  70  90 NW7       29.99R


...MIDDLE TENNESSEE...

CITY           SKY/WX    TMP DP  RH WIND       PRES   REMARKS
NASHVILLE      CLOUDY    73  69  87 NW6       29.98R
CLARKSVILLE    CLOUDY    70  61  73 N8        29.99R
DICKSON          N/A     68  66  94 NW6       30.00R
COLUMBIA       CLOUDY    72  70  94 VRB5      29.98R
LEWISBURG      MOCLDY    68  66  93 CALM      29.98R


...WESTERN KENTUCKY...

CITY           SKY/WX    TMP DP  RH WIND       PRES   REMARKS
PADUCAH        CLEAR     59  52  77 N6        30.04R
FORT CAMPBELL  CLOUDY    68  62  80 NW5       30.00R


...CENTRAL ARKANSAS...

CITY           SKY/WX    TMP DP  RH WIND       PRES   REMARKS
LITTLE ROCK    PTCLDY    69  66  90 N3        30.04R


SKY/WX REPORTED AS FAIR MEANS FEW OR NO CLOUDS BELOW
12 THOUSAND FEET.




USA.gov is the U.S. government's official web portal to all federal, state and local government web resources and services.